Content
SEND FEEDBACK

Daily
Averages
Monthly
Summary
United States of America

ROCKFORD, ILLINOIS


Home > North America > United States > Illinois
Elevation: 724 feet     Latitude: 42 12N     Longitude: 089 06W

WEATHER
 
SELECT A DAY
Number of Records: 199,475;   Date Range: 1/1/95 - 8/12/14
 
SHARE

PRINT THIS DATA

[ ← Previous Day ]
WEATHER ALMANAC - FEBRUARY 13, 2013
[ Next Day → ]
[ °C ]   °F
Weather ElementAverageHighLow
Temperature32 °F41 °F (12:54 pm)21 °F (5:54 am)
Dewpoint27 °F32 °F (10:54 pm)18 °F (5:54 am)
Humidity82.3 %92 % (2:54 am)65 % (12:54 pm)
Barometer29.79 in29.89 in (1:54 am)29.73 in (11:54 pm)
Wind Speed5.2 mph12.7 mph (2:54 pm)
Weather ElementAverage
Visibility8.7 mi
Wind DirectionS (183.9 °)

Weather ElementTotal
Precipitation---
Heating Degree Days34 (Base 65)
Averaged from 23 records on February 13, 2013
WEATHER CONDITIONS BREAKOUT
WIND DIRECTION BREAKOUT
WEATHER BY HOUR - FEBRUARY 13, 2013
[ °C ]   °F
Local TimeTemperatureDewpointHumidityBarometerVisibilityWind DirectionWind SpeedGust SpeedPrecipitationEventsConditions
1:54 AM24.1 °F21.0 °F88 %29.89 in7.0 miSSW (200°)5.8 mphPartly Cloudy
2:54 AM23.0 °F21.0 °F92 %29.87 in8.0 miSouth (180°)6.9 mphClear
3:54 AM24.1 °F21.9 °F91 %29.85 in8.0 miSouth (170°)5.8 mphClear
4:54 AM23.0 °F21.0 °F92 %29.83 in7.0 miSSE (160°)4.6 mphClear
5:54 AM21.0 °F18.0 °F88 %29.82 in6.0 miSSE (160°)4.6 mphClear
6:54 AM21.0 °F19.0 °F92 %29.81 in6.0 miSE (140°)4.6 mphClear
7:54 AM23.0 °F21.0 °F92 %29.82 in5.0 miCalmPartly Cloudy
8:54 AM28.0 °F26.1 °F92 %29.82 in6.0 miSSW (200°)3.5 mphClear
9:54 AM32.0 °F28.0 °F85 %29.81 in8.0 miSSW (210°)5.8 mphPartly Cloudy
10:54 AM35.1 °F28.9 °F78 %29.80 in10.0 miSW (220°)4.6 mphPartly Cloudy
11:54 AM37.9 °F28.9 °F70 %29.79 in10.0 miCalmScattered Clouds
12:54 PM41.0 °F30.0 °F65 %29.76 in10.0 miSSW (200°)4.6 mphScattered Clouds
1:54 PM41.0 °F30.9 °F67 %29.75 in10.0 miWest (270°)6.9 mphMostly Cloudy
2:54 PM41.0 °F30.0 °F65 %29.76 in10.0 miWest (270°)12.7 mphMostly Cloudy
3:54 PM39.9 °F30.9 °F70 %29.76 in10.0 miWest (260°)8.1 mphScattered Clouds
4:54 PM37.9 °F30.0 °F73 %29.77 in10.0 miWest (260°)6.9 mphScattered Clouds
5:54 PM36.0 °F30.0 °F79 %29.78 in10.0 miWSW (240°)4.6 mphMostly Cloudy
6:54 PM35.1 °F30.0 °F82 %29.79 in10.0 miSSW (200°)4.6 mphOvercast
7:54 PM34.0 °F30.0 °F85 %29.78 in10.0 miSouth (180°)4.6 mphOvercast
8:54 PM34.0 °F30.9 °F89 %29.77 in9.0 miSouth (180°)3.5 mphOvercast
9:54 PM34.0 °F30.0 °F85 %29.76 in9.0 miSouth (170°)4.6 mphOvercast
10:54 PM35.1 °F32.0 °F89 %29.75 in10.0 miSouth (170°)5.8 mphOvercast
11:54 PM35.1 °F30.9 °F85 %29.73 in10.0 miSouth (190°)5.8 mphOvercast
Hourly data recorded from KRFD, located miles away from Rockford, Illinois







STORIES FROM OUR PARTNERS